Hillsdale, MI

1:12 AM EDT on April 25, 2018 (GMT -0400)
Hillsdale Municipal

Weather History for KJYM - January, 2014

Change the Weather History Date:

Wednesday, January 22, 2014

  Actual Average Record
Temperature  
Mean Temperature 0 °F -  
Max Temperature 9 °F 30 °F 55 °F (2017)
Min Temperature -10 °F 16 °F -19 °F (1984)
Degree Days  
Heating Degree Days 66    
Moisture  
Dew Point -3 °F    
Average Humidity 74    
Maximum Humidity 86    
Minimum Humidity 60    
Precipitation  
Precipitation 0.00 in - - ()
Sea Level Pressure  
Sea Level Pressure 29.97 in    
Wind  
Wind Speed 4 mph (SSW)    
Max Wind Speed 13 mph    
Max Gust Speed 18 mph    
Visibility 6 miles    
Events Snow    
Averages and records for this station are not official NWS values.
T = Trace of Precipitation, MM = Missing Value Source: NWS Daily Summary

Daily Weather History Graph

Daily Weather History Graph

Search for Another Location

Airport or City:

Astronomy

Jan. 22, 2014 Rise Set
Actual Time 7:59 AM EST 5:40 PM EST
Civil Twilight 7:29 AM EST 6:11 PM EST
Nautical Twilight 6:55 AM EST 6:45 PM EST
Astronomical Twilight 6:22 AM EST 7:18 PM EST
Moon No Moon Rise 10:53 AM EST (1/22)
Length of Visible Light 10h 41m
Length of Day
9h 41m
Waning Gibbous, 65% of the Moon is Illuminated
Jan 22
Waning Gibbous
Jan 24
Last Quarter
Jan 30
New
Feb 6
First Quarter
Feb 14
Full

Hourly Weather History & Observations

Time (EST) Temp. Windchill Dew Point Humidity Pressure Visibility Wind Dir Wind Speed Gust Speed Precip Events Conditions
12:15 AM -6.2 °F - -10.8 °F 80% 30.13 in 10.0 mi Calm Calm - N/A   Clear
12:35 AM -5.6 °F - -10.3 °F 80% 30.12 in 10.0 mi Calm Calm - N/A   Clear
12:54 AM -8.5 °F - -13.2 °F 80% 30.12 in 10.0 mi Calm Calm - N/A   Scattered Clouds
1:15 AM -10.5 °F - -15.5 °F 78% 30.12 in 10.0 mi Calm Calm - N/A   Mostly Cloudy
1:34 AM -8.7 °F - -13.9 °F 78% 30.11 in 10.0 mi Calm Calm - N/A   Overcast
1:54 AM -8.1 °F - -13.5 °F 77% 30.11 in 10.0 mi Calm Calm - N/A   Overcast
2:15 AM -5.4 °F - -11.2 °F 76% 30.10 in 10.0 mi Calm Calm - N/A   Overcast
2:34 AM -6.0 °F - -11.9 °F 75% 30.10 in 10.0 mi Calm Calm - N/A   Overcast
2:55 AM -7.4 °F - -13.4 °F 75% 30.09 in 10.0 mi Calm Calm - N/A   Overcast
3:14 AM -6.7 °F - -13.0 °F 74% 30.08 in 10.0 mi Calm Calm - N/A   Scattered Clouds
3:34 AM -6.3 °F - -12.1 °F 76% 30.08 in 10.0 mi Calm Calm - N/A   Clear
3:55 AM -6.2 °F - -12.5 °F 74% 30.07 in 10.0 mi Calm Calm - N/A   Mostly Cloudy
4:14 AM -5.4 °F - -12.1 °F 73% 30.07 in 10.0 mi Calm Calm - N/A   Overcast
4:35 AM -7.2 °F - -14.3 °F 71% 30.07 in 10.0 mi Calm Calm - N/A   Mostly Cloudy
4:55 AM -2.6 °F -12.9 °F -9.8 °F 71% 30.06 in 10.0 mi South 4.6 mph - N/A   Overcast
5:14 AM -1.1 °F -9.1 °F -9.4 °F 68% 30.06 in 10.0 mi South 3.5 mph - N/A   Overcast
5:35 AM -0.6 °F -10.6 °F -9.9 °F 65% 30.05 in 10.0 mi South 4.6 mph - N/A   Overcast
5:55 AM -3.6 °F -12.0 °F -11.4 °F 69% 30.05 in 10.0 mi South 3.5 mph - N/A   Overcast
6:14 AM -0.2 °F -11.8 °F -9.2 °F 66% 30.03 in 10.0 mi South 5.8 mph - N/A   Overcast
6:35 AM -0.8 °F -10.8 °F -9.6 °F 66% 30.02 in 10.0 mi South 4.6 mph - N/A   Overcast
6:55 AM -0.0 °F -9.9 °F -9.6 °F 64% 30.03 in 10.0 mi South 4.6 mph - N/A   Overcast
7:14 AM 0.1 °F -7.7 °F -9.4 °F 64% 30.02 in 10.0 mi South 3.5 mph - N/A   Overcast
7:35 AM 0.9 °F -8.9 °F -8.9 °F 64% 30.02 in 10.0 mi South 4.6 mph - N/A   Overcast
7:55 AM 1.8 °F -9.5 °F -8.5 °F 62% 30.02 in 10.0 mi South 5.8 mph - N/A   Overcast
8:14 AM 2.1 °F -11.6 °F -8.0 °F 63% 30.01 in 10.0 mi South 8.1 mph - N/A   Overcast
8:35 AM 2.7 °F -10.9 °F -8.0 °F 61% 30.01 in 10.0 mi South 8.1 mph - N/A   Mostly Cloudy
8:54 AM 2.8 °F -9.5 °F -8.0 °F 61% 30.01 in 10.0 mi South 6.9 mph - N/A   Overcast
9:15 AM 2.8 °F -9.5 °F -8.0 °F 61% 30.01 in 10.0 mi South 6.9 mph - N/A   Overcast
9:34 AM 2.8 °F -11.7 °F -8.0 °F 61% 30.01 in 10.0 mi South 9.2 mph - N/A   Mostly Cloudy
9:54 AM 3.6 °F -12.6 °F -7.4 °F 60% 30.00 in 10.0 mi South 11.5 mph - N/A   Scattered Clouds
10:15 AM 3.7 °F -10.6 °F -7.2 °F 60% 30.00 in 10.0 mi South 9.2 mph - N/A   Scattered Clouds
10:34 AM 4.3 °F -9.0 °F -6.7 °F 60% 30.00 in 10.0 mi South 8.1 mph - N/A   Mostly Cloudy
10:55 AM 4.8 °F -11.1 °F -6.3 °F 60% 30.00 in 10.0 mi South 11.5 mph - N/A   Mostly Cloudy
11:14 AM 6.3 °F -9.2 °F -5.1 °F 60% 29.99 in 10.0 mi South 11.5 mph - N/A   Scattered Clouds
11:34 AM 6.6 °F -7.1 °F -4.4 °F 61% 29.98 in 10.0 mi South 9.2 mph - N/A   Scattered Clouds
11:55 AM 7.3 °F -7.1 °F -3.3 °F 62% 29.97 in 7.0 mi South 10.4 mph - N/A   Overcast
12:14 PM 7.5 °F -6.9 °F -1.1 °F 68% 29.96 in 2.0 mi South 10.4 mph - N/A Snow Light Snow
12:35 PM 7.9 °F -4.6 °F 0.3 °F 71% 29.94 in 2.0 mi South 8.1 mph - N/A Snow Light Snow
12:54 PM 8.1 °F -6.2 °F 0.9 °F 72% 29.93 in 2.0 mi South 10.4 mph - N/A Snow Light Snow
1:14 PM 8.6 °F -6.3 °F 1.2 °F 72% 29.92 in 1.8 mi South 11.5 mph - N/A Snow Light Snow
1:35 PM 8.8 °F -6.8 °F 1.4 °F 72% 29.91 in 2.0 mi SSW 12.7 mph 18.4 mph N/A Snow Light Snow
1:54 PM 9.1 °F -4.9 °F 1.4 °F 71% 29.89 in 2.5 mi SSW 10.4 mph - N/A Snow Light Snow
2:15 PM 9.0 °F -5.9 °F 1.4 °F 71% 29.88 in 2.0 mi SSW 11.5 mph - N/A Snow Light Snow
2:35 PM 9.0 °F -5.9 °F 1.8 °F 73% 29.87 in 1.8 mi South 11.5 mph - N/A Snow Light Snow
2:54 PM 9.3 °F -3.8 °F 1.9 °F 72% 29.87 in 2.0 mi SSW 9.2 mph - N/A Snow Light Snow
3:15 PM 9.7 °F -3.3 °F 2.7 °F 73% 29.87 in 2.0 mi SSW 9.2 mph - N/A Snow Light Snow
3:35 PM 9.5 °F -2.6 °F 2.3 °F 73% 29.87 in 2.0 mi South 8.1 mph - N/A Snow Light Snow
3:54 PM 9.9 °F -3.1 °F 2.8 °F 73% 29.87 in 3.0 mi SSW 9.2 mph 16.1 mph N/A Snow Light Snow
4:15 PM 9.9 °F -2.2 °F 3.6 °F 76% 29.87 in 3.0 mi South 8.1 mph - N/A Snow Light Snow
4:35 PM 9.9 °F -4.7 °F 4.5 °F 79% 29.87 in 1.5 mi South 11.5 mph - N/A Snow Light Snow
4:54 PM 9.9 °F -1.1 °F 4.5 °F 79% 29.87 in 1.8 mi South 6.9 mph - N/A Snow Light Snow
5:15 PM 9.9 °F -1.1 °F 4.6 °F 79% 29.87 in 1.8 mi South 6.9 mph - N/A Snow Light Snow
5:34 PM 9.9 °F -1.1 °F 5.0 °F 81% 29.87 in 1.5 mi South 6.9 mph - N/A Snow Light Snow
5:54 PM 9.9 °F -1.1 °F 5.5 °F 83% 29.87 in 1.5 mi South 6.9 mph - N/A Snow Light Snow
6:15 PM 9.3 °F 1.0 °F 5.4 °F 84% 29.88 in 1.8 mi SSW 4.6 mph - N/A Snow Light Snow
6:34 PM 9.3 °F -0.5 °F 5.5 °F 85% 29.88 in 4.0 mi South 5.8 mph - N/A Snow Light Snow
6:55 PM 9.9 °F 1.6 °F 5.7 °F 83% 29.89 in 2.5 mi SSW 4.6 mph - N/A Snow Light Snow
7:15 PM 9.9 °F 0.2 °F 5.7 °F 83% 29.88 in 1.5 mi SSW 5.8 mph - N/A Snow Light Snow
7:35 PM 9.9 °F 0.2 °F 5.7 °F 83% 29.88 in 2.0 mi SSW 5.8 mph - N/A Snow Light Snow
7:55 PM 9.9 °F -1.1 °F 5.9 °F 84% 29.88 in 2.0 mi SSW 6.9 mph - N/A Snow Light Snow
8:14 PM 9.3 °F -0.5 °F 5.5 °F 85% 29.88 in 2.5 mi SSW 5.8 mph - N/A Snow Light Snow
8:35 PM 9.3 °F 1.0 °F 5.7 °F 85% 29.87 in 1.5 mi South 4.6 mph - N/A Snow Light Snow
8:55 PM 9.9 °F -1.1 °F 6.3 °F 85% 29.87 in 2.0 mi South 6.9 mph - N/A Snow Light Snow
9:14 PM 9.9 °F 0.2 °F 6.1 °F 85% 29.87 in 1.8 mi South 5.8 mph - N/A Snow Light Snow
9:35 PM 9.9 °F -1.1 °F 6.1 °F 85% 29.87 in 1.8 mi SSW 6.9 mph - N/A Snow Light Snow
9:55 PM 9.9 °F -2.2 °F 6.1 °F 85% 29.87 in 1.8 mi SSW 8.1 mph - N/A Snow Light Snow
10:14 PM 9.9 °F 0.2 °F 6.3 °F 85% 29.87 in 1.5 mi SSW 5.8 mph - N/A Snow Light Snow
10:35 PM 9.9 °F 1.6 °F 6.3 °F 85% 29.87 in 1.2 mi SW 4.6 mph - N/A Snow Light Snow
10:55 PM 9.3 °F 2.8 °F 5.7 °F 85% 29.88 in 2.0 mi WSW 3.5 mph - N/A Snow Light Snow
11:14 PM 9.5 °F -1.5 °F 5.7 °F 85% 29.88 in 5.0 mi West 6.9 mph - N/A Snow Light Snow
11:35 PM 8.6 °F -2.6 °F 5.0 °F 85% 29.89 in 10.0 mi West 6.9 mph - N/A Snow Light Snow
11:54 PM 7.7 °F -5.8 °F 4.3 °F 86% 29.89 in 10.0 mi West 9.2 mph - N/A   Clear